GW4712 Weather Reports


time (UTC)temp
F
wind
direction
speed
knots
gust
knots
rain 1hr
in
rain 24hr
in
rain mn
in
humidity
%
barometer
mb
20260902235312 79 163 0.0 0.0 0.00 0.00 0.00 94 1017.6
20260902234806 79 163 0.0 0.0 0.00 0.00 0.00 94 1017.7
20260902234306 80 163 0.0 0.0 0.00 0.00 0.00 93 1017.5
20260902233805 80 163 0.0 0.0 0.00 0.00 0.00 92 1017.5
20260902233304 81 163 0.0 0.0 0.00 0.00 0.00 91 1017.4
20260902232803 81 163 0.0 0.0 0.00 0.00 0.00 91 1017.6
20260902232306 82 163 0.0 0.0 0.00 0.00 0.00 90 1017.6
20260902231803 82 163 0.0 0.0 0.00 0.00 0.00 90 1017.5
20260902231258 82 163 0.0 0.0 0.00 0.00 0.00 88 1017.4
20260902230753 83 167 0.0 0.0 0.00 0.00 0.00 87 1017.5
20260902230252 84 169 0.0 0.0 0.00 0.00 0.00 85 1017.7
20260902225747 84 179 0.0 0.0 0.00 0.00 0.00 84 1017.6
20260902225242 85 179 0.0 0.0 0.00 0.00 0.00 83 1017.6
20260902224740 86 179 0.0 0.0 0.00 0.00 0.00 82 1017.6
20260902224236 87 179 0.0 0.0 0.00 0.00 0.00 78 1017.6
20260902223732 88 255 0.0 0.0 0.00 0.00 0.00 77 1017.7
20260902223231 88 256 0.0 0.0 0.00 0.00 0.00 78 1017.5
20260902222730 88 256 0.0 0.0 0.00 0.00 0.00 72 1017.6
20260902222224 89 252 0.0 0.0 0.00 0.00 0.00 73 1017.6
20260902221719 90 252 0.0 0.0 0.00 0.00 0.00 72 1017.8
20260902221213 90 239 0.0 0.0 0.00 0.00 0.00 67 1017.6
20260902220709 91 246 0.0 0.0 0.00 0.00 0.00 66 1017.7
20260902220208 91 246 0.0 0.0 0.00 0.00 0.00 70 1017.6
20260902215704 91 241 0.0 0.0 0.00 0.00 0.00 65 1017.6
20260902215200 91 221 0.0 0.0 0.00 0.00 0.00 68 1017.7
20260902214654 91 241 0.0 0.0 0.00 0.00 0.00 66 1018.0
20260902214153 90 258 0.0 0.0 0.00 0.00 0.00 66 1017.5
20260902213649 91 270 0.0 0.0 0.00 0.00 0.00 65 1017.8
20260902213148 91 241 0.0 0.0 0.00 0.00 0.00 65 1017.6
20260902212644 91 178 0.0 0.0 0.00 0.00 0.00 65 1017.8
20260902212140 92 266 0.0 0.0 0.00 0.00 0.00 64 1017.7
20260902211637 91 273 0.0 0.0 0.00 0.00 0.00 64 1017.7
20260902211136 91 301 0.0 0.0 0.00 0.00 0.00 62 1017.8
20260902210636 91 252 0.0 0.0 0.00 0.00 0.00 63 1017.8
20260902210131 92 249 0.0 0.0 0.00 0.00 0.00 64 1017.8
20260902205630 91 277 0.0 0.0 0.00 0.00 0.00 65 1017.9
20260902205126 92 250 0.0 0.0 0.00 0.00 0.00 62 1017.7
20260902204626 91 251 0.0 0.0 0.00 0.00 0.00 63 1017.8
20260902204120 91 302 0.0 0.0 0.00 0.00 0.00 63 1018.0
20260902203616 91 253 0.0 0.0 0.00 0.00 0.00 62 1018.1
20260902203115 91 308 0.0 0.0 0.00 0.00 0.00 64 1018.2
20260902202611 92 234 0.0 0.0 0.00 0.00 0.00 60 1018.3
20260902202108 91 272 0.0 0.0 0.00 0.00 0.00 63 1018.3
20260902201603 91 239 0.0 0.0 0.00 0.00 0.00 63 1018.3
20260902201102 91 236 0.0 0.0 0.00 0.00 0.00 64 1018.4
20260902200557 92 241 0.0 0.0 0.00 0.00 0.00 61 1018.3
20260902200054 91 154 0.0 0.0 0.00 0.00 0.00 63 1018.4
20260902195549 92 295 0.0 0.0 0.00 0.00 0.00 62 1018.3
20260902195048 91 241 0.0 0.0 0.00 0.00 0.00 65 1018.6
20260902194548 91 190 0.0 0.0 0.00 0.00 0.00 64 1018.5
20260902194043 92 266 0.0 0.9 0.00 0.00 0.00 64 1018.3
20260902193539 92 257 0.0 3.5 0.00 0.00 0.00 62 1018.8
20260902193038 91 255 0.0 0.9 0.00 0.00 0.00 63 1018.6
20260902192537 91 282 0.0 0.0 0.00 0.00 0.00 66 1018.6
20260902192036 91 302 0.0 0.0 0.00 0.00 0.00 67 1018.8
20260902191532 91 249 0.0 0.0 0.00 0.00 0.00 63 1018.9
20260902191026 91 227 0.0 0.9 0.00 0.00 0.00 63 1018.9
20260902190522 91 287 0.0 0.0 0.00 0.00 0.00 64 1019.1
20260902190017 91 258 0.0 0.0 0.00 0.00 0.00 66 1019.1
20260902185513 91 311 0.0 0.0 0.00 0.00 0.00 66 1018.9
20260902185009 91 254 0.0 0.0 0.00 0.00 0.00 65 1018.9
20260902184503 90 251 0.0 0.0 0.00 0.00 0.00 65 1019.3
20260902183958 90 294 0.0 0.0 0.00 0.00 0.00 68 1019.1
20260902183455 90 293 0.0 0.0 0.00 0.00 0.00 66 1019.2
20260902182951 90 300 0.0 0.0 0.00 0.00 0.00 67 1019.2
20260902182447 91 262 0.0 0.9 0.00 0.00 0.00 66 1019.3
20260902181943 91 159 0.0 0.0 0.00 0.00 0.00 65 1019.2
20260902181438 90 278 0.0 0.0 0.00 0.00 0.00 66 1019.3
20260902180932 90 303 0.0 0.9 0.00 0.00 0.00 66 1019.2
20260902180428 90 249 0.0 0.0 0.00 0.00 0.00 66 1019.3
20260902175923 91 237 0.0 0.0 0.00 0.00 0.00 67 1019.3
20260902175418 90 179 0.0 0.0 0.00 0.00 0.00 69 1019.4
20260902174914 90 244 0.0 0.0 0.00 0.00 0.00 68 1019.4
20260902174411 91 303 0.0 0.0 0.00 0.00 0.00 68 1019.3
20260902173907 90 285 0.0 0.0 0.00 0.00 0.00 69 1019.2
20260902173406 90 300 0.0 0.9 0.00 0.00 0.00 70 1019.4
20260902172901 89 270 0.0 0.0 0.00 0.00 0.00 67 1019.6
20260902172400 90 277 0.0 0.9 0.00 0.00 0.00 66 1019.4
20260902171855 89 313 0.0 0.0 0.00 0.00 0.00 68 1019.7
20260902171350 90 242 0.0 0.0 0.00 0.00 0.00 69 1019.5
20260902170846 89 287 0.0 0.0 0.00 0.00 0.00 70 1019.7
20260902170342 89 312 0.0 0.0 0.00 0.00 0.00 69 1019.8
20260902165838 89 274 0.0 0.0 0.00 0.00 0.00 67 1020.0
20260902165336 89 162 0.0 0.0 0.00 0.00 0.00 69 1020.0
20260902164832 89 295 0.0 0.0 0.00 0.00 0.00 69 1020.2
20260902164326 88 240 0.0 0.0 0.00 0.00 0.00 68 1020.2
20260902163825 88 245 0.0 0.0 0.00 0.00 0.00 74 1020.4
20260902163325 88 290 0.0 0.0 0.00 0.00 0.00 70 1020.2
20260902162824 88 248 0.0 0.0 0.00 0.00 0.00 71 1020.2
20260902162319 88 240 0.0 0.0 0.00 0.00 0.00 70 1020.6
20260902161814 87 300 0.0 0.9 0.00 0.00 0.00 72 1020.5
20260902161310 87 291 0.0 0.0 0.00 0.00 0.00 75 1020.4
20260902160805 87 231 0.0 0.0 0.00 0.00 0.00 71 1020.6
20260902160301 87 303 0.9 1.7 0.00 0.00 0.00 72 1020.4
20260902155758 87 283 0.0 0.9 0.00 0.00 0.00 74 1020.6
20260902155257 87 274 0.0 0.0 0.00 0.00 0.00 75 1020.5
20260902154753 87 240 0.0 0.0 0.00 0.00 0.00 76 1020.6
20260902154249 86 186 0.0 0.0 0.00 0.00 0.00 77 1020.7
20260902153747 86 236 0.0 0.0 0.00 0.00 0.00 75 1020.8
20260902153241 86 215 0.0 0.0 0.00 0.00 0.00 77 1020.8
20260902152732 85 164 0.0 0.0 0.00 0.00 0.00 78 1020.7
20260902152227 85 182 0.0 0.0 0.00 0.00 0.00 78 1020.5
20260902151722 85 195 0.0 0.0 0.00 0.00 0.00 78 1020.7
20260902151217 85 239 0.0 0.0 0.00 0.00 0.00 79 1020.6
20260902150717 85 162 0.0 0.0 0.00 0.00 0.00 78 1020.6
20260902150214 85 170 0.0 0.0 0.00 0.00 0.00 79 1020.8
20260902145712 84 190 0.0 0.0 0.00 0.00 0.00 80 1020.8
20260902145213 84 228 0.0 0.0 0.00 0.00 0.00 82 1020.8
20260902144709 83 237 0.0 0.0 0.00 0.00 0.00 81 1020.9
20260902144204 83 238 0.0 0.0 0.00 0.00 0.00 81 1020.9
20260902143659 83 226 0.0 0.0 0.00 0.00 0.00 82 1020.8
20260902143154 82 176 0.0 0.0 0.00 0.00 0.00 83 1020.9
20260902142650 82 185 0.0 0.0 0.00 0.00 0.00 82 1020.7
20260902142146 82 177 0.0 0.0 0.00 0.00 0.00 82 1020.5
20260902141645 82 160 0.0 0.0 0.00 0.00 0.00 84 1020.5
20260902141141 81 164 0.0 0.0 0.00 0.00 0.00 85 1020.5
20260902140636 81 164 0.0 0.0 0.00 0.00 0.00 85 1020.5
20260902140131 80 160 0.0 0.0 0.00 0.00 0.00 86 1020.5
20260902135630 80 188 0.0 0.0 0.00 0.00 0.00 86 1020.3
20260902135126 80 244 0.0 0.0 0.00 0.00 0.00 86 1020.6
20260902134621 80 186 0.0 0.0 0.00 0.00 0.00 87 1020.4
20260902134116 79 214 0.0 0.0 0.00 0.00 0.00 88 1020.4
20260902133616 79 214 0.0 0.0 0.00 0.00 0.00 92 1020.4
20260902133111 78 214 0.0 0.0 0.00 0.00 0.00 92 1020.4
20260902132606 78 214 0.0 0.0 0.00 0.00 0.00 95 1020.1
20260902132102 77 214 0.0 0.0 0.00 0.00 0.00 97 1020.3
20260902131557 77 214 0.0 0.0 0.00 0.00 0.00 96 1020.4
20260902131051 76 214 0.0 0.0 0.00 0.00 0.00 98 1020.4
20260902130547 75 214 0.0 0.0 0.00 0.00 0.00 98 1020.3
20260902130042 74 214 0.0 0.0 0.00 0.00 0.00 99 1020.6
20260902125538 74 214 0.0 0.0 0.00 0.00 0.00 99 1020.3
20260902125033 73 214 0.0 0.0 0.00 0.00 0.00 99 1020.4
20260902124530 73 214 0.0 0.0 0.00 0.00 0.00 99 1020.1
20260902124024 72 214 0.0 0.0 0.00 0.00 0.00 99 1020.3
20260902123520 72 214 0.0 0.0 0.00 0.00 0.00 99 1020.2
20260902123020 71 215 0.0 0.0 0.00 0.00 0.00 99 1019.9
20260902122514 71 215 0.0 0.0 0.00 0.00 0.00 99 1020.2
20260902122010 71 215 0.0 0.0 0.00 0.00 0.00 99 1020.2
20260902121505 71 215 0.0 0.0 0.00 0.00 0.00 99 1020.2
20260902121000 70 215 0.0 0.0 0.00 0.00 0.00 99 1020.1
20260902120457 70 214 0.0 0.0 0.00 0.00 0.00 99 1020.0
20260902115956 69 215 0.0 0.0 0.00 0.00 0.00 99 1020.1
20260902115452 69 214 0.0 0.0 0.00 0.00 0.00 99 1020.1
20260902114949 69 215 0.0 0.0 0.00 0.00 0.00 99 1019.9
20260902114444 69 215 0.0 0.0 0.00 0.00 0.00 99 1020.0
20260902113938 69 214 0.0 0.0 0.00 0.00 0.00 99 1020.1
20260902113434 68 214 0.0 0.0 0.00 0.00 0.00 99 1019.9
20260902112933 68 214 0.0 0.0 0.00 0.00 0.00 99 1020.0
20260902112429 68 214 0.0 0.0 0.00 0.00 0.00 99 1020.0
20260902111925 68 214 0.0 0.0 0.00 0.00 0.00 99 1019.9
20260902111422 68 215 0.0 0.0 0.00 0.00 0.00 99 1019.8
20260902110918 68 214 0.0 0.0 0.00 0.00 0.00 99 1020.0
20260902110413 68 214 0.0 0.0 0.00 0.00 0.00 99 1020.0
20260902105913 68 214 0.0 0.0 0.00 0.00 0.00 99 1019.8
20260902105408 68 214 0.0 0.0 0.00 0.00 0.00 99 1019.8
20260902104903 68 214 0.0 0.0 0.00 0.00 0.00 99 1019.9
20260902104359 68 214 0.0 0.0 0.00 0.00 0.00 99 1020.0
20260902103853 68 214 0.0 0.0 0.00 0.00 0.00 99 1019.9
20260902103348 68 214 0.0 0.0 0.00 0.00 0.00 99 1020.1
20260902102843 68 215 0.0 0.0 0.00 0.00 0.00 99 1020.1
20260902102341 68 214 0.0 0.0 0.00 0.00 0.00 99 1020.2
20260902101836 68 214 0.0 0.0 0.00 0.00 0.00 99 1020.0
20260902101330 68 214 0.0 0.0 0.00 0.00 0.00 99 1019.9
20260902100825 68 214 0.0 0.0 0.00 0.00 0.00 99 1019.9
20260902100324 68 214 0.0 0.0 0.00 0.00 0.00 99 1020.0
20260902095820 69 214 0.0 0.0 0.00 0.00 0.00 99 1020.0
20260902095319 69 214 0.0 0.0 0.00 0.00 0.00 99 1019.8
20260902094814 69 215 0.0 0.0 0.00 0.00 0.00 99 1020.0
20260902094310 69 214 0.0 0.0 0.00 0.00 0.00 99 1019.8
20260902093809 69 214 0.0 0.0 0.00 0.00 0.00 99 1019.9
20260902093304 69 214 0.0 0.0 0.00 0.00 0.00 99 1020.0
20260902092804 69 214 0.0 0.0 0.00 0.00 0.00 99 1019.8
20260902092259 69 215 0.0 0.0 0.00 0.00 0.00 99 1019.9
20260902091758 69 214 0.0 0.0 0.00 0.00 0.00 99 1019.8
20260902091255 69 214 0.0 0.0 0.00 0.00 0.00 99 1019.7
20260902090746 69 214 0.0 0.0 0.00 0.00 0.00 99 1019.8
20260902090245 69 214 0.0 0.0 0.00 0.00 0.00 99 1019.4
20260902085745 69 214 0.0 0.0 0.00 0.00 0.00 99 1019.6
20260902085240 69 214 0.0 0.0 0.00 0.00 0.00 99 1019.6
20260902084736 69 214 0.0 0.0 0.00 0.00 0.00 99 1019.6
20260902084232 69 214 0.0 0.0 0.00 0.00 0.00 99 1019.5
20260902083731 69 214 0.0 0.0 0.00 0.00 0.00 99 1019.7
20260902083226 69 214 0.0 0.0 0.00 0.00 0.00 99 1019.5
20260902082721 69 214 0.0 0.0 0.00 0.00 0.00 99 1019.5
20260902082218 69 214 0.0 0.0 0.00 0.00 0.00 99 1019.3
20260902081714 69 214 0.0 0.0 0.00 0.00 0.00 99 1019.2
20260902081215 69 214 0.0 0.0 0.00 0.00 0.00 99 1019.4
20260902080709 69 214 0.0 0.0 0.00 0.00 0.00 99 1019.5
20260902080206 69 214 0.0 0.0 0.00 0.00 0.00 99 1019.4
20260902075701 69 214 0.0 0.0 0.00 0.00 0.00 99 1019.3
20260902075156 69 214 0.0 0.0 0.00 0.00 0.00 99 1019.3
20260902074656 69 214 0.0 0.0 0.00 0.00 0.00 99 1019.4
20260902074151 69 214 0.0 0.0 0.00 0.00 0.00 99 1019.4
20260902073647 69 214 0.0 0.0 0.00 0.00 0.00 99 1019.4
20260902073143 69 214 0.0 0.0 0.00 0.00 0.00 99 1019.5
20260902072639 69 214 0.0 0.0 0.00 0.00 0.00 99 1019.4
20260902072135 70 214 0.0 0.0 0.00 0.00 0.00 99 1019.5
20260902071630 69 214 0.0 0.0 0.00 0.00 0.00 99 1019.4
20260902071126 69 214 0.0 0.0 0.00 0.00 0.00 99 1019.4
20260902070621 70 214 0.0 0.0 0.00 0.00 0.00 99 1019.4
20260902070116 70 214 0.0 0.0 0.00 0.00 0.00 99 1019.3
20260902065615 70 214 0.0 0.0 0.00 0.00 0.00 99 1019.2
20260902065111 70 214 0.0 0.0 0.00 0.00 0.00 99 1019.2
20260902064607 70 214 0.0 0.0 0.00 0.00 0.00 99 1019.3
20260902064102 70 214 0.0 0.0 0.00 0.00 0.00 99 1019.3
20260902063601 70 214 0.0 0.0 0.00 0.00 0.00 99 1019.3
20260902063056 70 215 0.0 0.0 0.00 0.00 0.00 99 1019.4
20260902062556 70 215 0.0 0.0 0.00 0.00 0.00 99 1019.4
20260902062052 70 214 0.0 0.0 0.00 0.00 0.00 99 1019.3
20260902061551 70 214 0.0 0.0 0.00 0.00 0.00 99 1019.3
20260902061047 71 215 0.0 0.0 0.00 0.00 0.00 99 1019.4
20260902060543 71 214 0.0 0.0 0.00 0.00 0.00 99 1019.2
20260902060039 70 215 0.0 0.0 0.00 0.00 0.00 99 1019.4
20260902055535 71 215 0.0 0.0 0.00 0.00 0.00 99 1019.2
20260902055030 71 215 0.0 0.0 0.00 0.00 0.00 99 1019.5
20260902054525 71 215 0.0 0.0 0.00 0.00 0.00 99 1019.3
20260902054021 71 215 0.0 0.0 0.00 0.00 0.00 99 1019.2
20260902053516 71 215 0.0 0.0 0.00 0.00 0.00 99 1019.2
20260902053015 71 215 0.0 0.0 0.00 0.00 0.00 99 1019.4
20260902052510 71 215 0.0 0.0 0.00 0.00 0.00 99 1019.1
20260902052005 71 215 0.0 0.0 0.00 0.00 0.00 99 1019.2
20260902051500 71 215 0.0 0.0 0.00 0.00 0.00 99 1019.1
20260902050958 71 215 0.0 0.0 0.00 0.00 0.00 99 1019.1
20260902050453 71 215 0.0 0.0 0.00 0.00 0.00 99 1018.9
20260902045948 71 215 0.0 0.0 0.00 0.00 0.00 99 1018.8
20260902045444 71 215 0.0 0.0 0.00 0.00 0.00 99 1018.8
20260902044940 71 215 0.0 0.0 0.00 0.00 0.00 99 1018.7
20260902044435 71 215 0.0 0.0 0.00 0.00 0.00 99 1018.7
20260902043930 71 215 0.0 0.0 0.00 0.00 0.00 99 1018.7
20260902043425 72 215 0.0 0.0 0.00 0.00 0.00 99 1018.7
20260902042920 72 215 0.0 0.0 0.00 0.00 0.00 99 1018.8
20260902042419 72 215 0.0 0.0 0.00 0.00 0.00 99 1018.5
20260902041915 72 215 0.0 0.0 0.00 0.00 0.00 99 1018.7
20260902041410 72 215 0.0 0.0 0.00 0.00 0.00 99 1018.6
20260902040911 72 215 0.0 0.0 0.00 0.00 0.00 99 1018.7
20260902040404 72 215 0.0 0.0 0.00 0.00 0.00 99 1018.7
20260902035903 73 215 0.0 0.0 0.00 0.00 0.00 99 1018.9
20260902035358 72 215 0.0 0.0 0.00 0.00 0.00 99 1018.6
20260902034857 72 215 0.0 0.0 0.00 0.00 0.00 99 1018.7
20260902034353 72 215 0.0 0.0 0.00 0.00 0.00 99 1018.7
20260902033851 72 215 0.0 0.0 0.00 0.00 0.00 99 1018.7
20260902033346 73 215 0.0 0.0 0.00 0.00 0.00 99 1018.4
20260902032845 72 215 0.0 0.0 0.00 0.00 0.00 99 1018.8
20260902032344 73 215 0.0 0.0 0.00 0.00 0.00 99 1018.7
20260902031839 73 215 0.0 0.0 0.00 0.00 0.00 99 1018.4
20260902031335 73 215 0.0 0.0 0.00 0.00 0.00 99 1018.3
20260902030825 73 215 0.0 0.0 0.00 0.00 0.00 99 1018.5
20260902030319 73 215 0.0 0.0 0.00 0.00 0.00 99 1018.5
20260902025818 73 215 0.0 0.0 0.00 0.00 0.00 99 1018.8
20260902025314 73 215 0.0 0.0 0.00 0.00 0.00 99 1018.4
20260902024809 73 215 0.0 0.0 0.00 0.00 0.00 99 1018.6
20260902024304 73 215 0.0 0.0 0.00 0.00 0.00 99 1018.5
20260902023759 74 215 0.0 0.0 0.00 0.00 0.00 99 1018.6
20260902023255 73 215 0.0 0.0 0.00 0.00 0.00 99 1018.5
20260902022754 74 215 0.0 0.0 0.00 0.00 0.00 99 1018.7
20260902022250 74 215 0.0 0.0 0.00 0.00 0.00 99 1018.6
20260902021745 74 215 0.0 0.0 0.00 0.00 0.00 99 1018.6
20260902021244 74 215 0.0 0.0 0.00 0.00 0.00 99 1018.7
20260902020741 74 215 0.0 0.0 0.00 0.00 0.00 99 1018.5
20260902020237 74 215 0.0 0.0 0.00 0.00 0.00 99 1018.5
20260902015732 74 215 0.0 0.0 0.00 0.00 0.00 99 1018.6
20260902015228 74 215 0.0 0.0 0.00 0.00 0.00 99 1018.7
20260902014723 74 215 0.0 0.0 0.00 0.00 0.00 99 1018.6
20260902014220 74 215 0.0 0.0 0.00 0.00 0.00 99 1018.4
20260902013718 75 215 0.0 0.0 0.00 0.00 0.00 99 1018.5
20260902013214 75 215 0.0 0.0 0.00 0.00 0.00 99 1018.3
20260902012709 75 215 0.0 0.0 0.00 0.00 0.00 99 1018.6
20260902012205 75 215 0.0 0.0 0.00 0.00 0.00 99 1018.6
20260902011700 75 215 0.0 0.0 0.00 0.00 0.00 99 1018.4
20260902011154 75 215 0.0 0.0 0.00 0.00 0.00 99 1018.5
20260902010654 75 215 0.0 0.0 0.00 0.00 0.00 99 1018.4
20260902010150 75 215 0.0 0.0 0.00 0.00 0.00 99 1018.5
20260902005648 76 215 0.0 0.0 0.00 0.00 0.00 99 1018.4
20260902005143 76 215 0.0 0.0 0.00 0.00 0.00 99 1018.3
20260902004643 76 215 0.0 0.0 0.00 0.00 0.00 99 1018.4
20260902004138 76 215 0.0 0.0 0.00 0.00 0.00 99 1018.4
20260902003634 76 215 0.0 0.0 0.00 0.00 0.00 99 1018.3
20260902003129 77 215 0.0 0.0 0.00 0.00 0.00 99 1018.4
20260902002624 77 215 0.0 0.0 0.00 0.00 0.00 99 1018.3
20260902002119 77 215 0.0 0.0 0.00 0.00 0.00 98 1018.3
20260902001614 77 215 0.0 0.0 0.00 0.00 0.00 98 1018.3
20260902001109 78 215 0.0 0.0 0.00 0.00 0.00 98 1018.3
20260902000605 78 215 0.0 0.0 0.00 0.00 0.00 98 1018.2
20260902000100 78 215 0.0 0.0 0.00 0.00 0.00 98 1018.3
20260901235559 78 215 0.0 0.0 0.00 0.00 0.00 97 1018.2